This demonstration page uses our WeatherBlox Daily Observations layout. Learn more.

Left ArrowRight Arrow

39.01783, -85.05884

Hourly Observations for September 3, 2021

Temp ( °F °C ) Dew Point ( °F °C ) Humidity (%) Winds ( mph kmh ) Pressure ( in mb ) Visibility ( mi km ) Precip ( " mm )
12:52 am 00:52 Mostly Cloudy 66 18.9 53 11.7 63 63 E 7 11 30.08 1019 10 16 0.00 0.00
1:52 am 01:52 Mostly Cloudy 67 19.4 53 11.7 61 61 ENE 12 19 30.09 1019 10 16 0.00 0.00
2:52 am 02:52 Mostly Cloudy 65 18.3 52 11.1 63 63 ENE 12 19 30.08 1019 10 16 0.00 0.00
3:52 am 03:52 Mostly Cloudy 64 17.8 51 10.6 63 63 ENE 7 11 30.09 1019 10 16 0.00 0.00
4:52 am 04:52 Cloudy 64 17.8 51 10.6 63 63 ENE 8 13 30.09 1019 10 16 0.00 0.00
5:52 am 05:52 Mostly Clear 61 16.1 51 10.6 70 70 E 6 9 30.08 1019 10 16 0.00 0.00
6:52 am 06:52 Partly Cloudy 61 16.1 50 10 67 67 E 5 7 30.09 1019 10 16 0.00 0.00
7:52 am 07:52 Partly Cloudy 61 16.1 51 10.6 70 70 E 7 11 30.11 1020 10 16 0.00 0.00
8:52 am 08:52 Mostly Cloudy 64 17.8 50 10 60 60 E 6 9 30.12 1020 10 16 0.00 0.00
9:52 am 09:52 Mostly Sunny 67 19.4 50 10 55 55 E 10 17 30.12 1020 10 16 0.00 0.00
10:52 am 10:52 Mostly Sunny 71 21.7 52 11.1 51 51 SE 7 11 30.13 1020 10 16 0.00 0.00
11:52 am 11:52 Partly Cloudy 73 22.8 53 11.7 50 50 E 7 11 30.13 1020 10 16 0.00 0.00
12:52 pm 12:52 Partly Cloudy 77 25 52 11.1 42 42 ENE 6 9 30.12 1020 10 16 0.00 0.00
1:52 pm 13:52 Mostly Cloudy 77 25 52 11.1 42 42 SE 7 11 30.10 1019 10 16 0.00 0.00
2:52 pm 14:52 Mostly Cloudy 77 25 51 10.6 40 40 ENE 5 7 30.09 1019 10 16 0.00 0.00
3:52 pm 15:52 Mostly Cloudy 78 25.6 52 11.1 40 40 VRB 6 9 30.07 1018 10 16 0.00 0.00
4:52 pm 16:52 Mostly Cloudy 79 26.1 53 11.7 41 41 E 3 6 30.06 1018 10 16 0.00 0.00
5:52 pm 17:52 Mostly Cloudy 77 25 51 10.6 40 40 ENE 10 17 30.06 1018 10 16 0.00 0.00
6:52 pm 18:52 Mostly Cloudy 73 22.8 53 11.7 50 50 ESE 8 13 30.05 1018 10 16 0.00 0.00
7:52 pm 19:52 Mostly Cloudy 73 22.8 51 10.6 46 46 ESE 7 11 30.03 1017 10 16 0.00 0.00
8:52 pm 20:52 Cloudy 72 22.2 50 10 46 46 E 6 9 30.04 1017 10 16 0.00 0.00
9:52 pm 21:52 Cloudy 71 21.7 52 11.1 51 51 E 5 7 30.05 1018 10 16 0.00 0.00
10:52 pm 22:52 Cloudy 70 21.1 53 11.7 55 55 ESE 9 15 30.03 1017 10 16 0.00 0.00
11:52 pm 23:52 Cloudy 70 21.1 53 11.7 55 55 ESE 7 11 30.03 1017 10 16 0.00 0.00

Powered by AerisWeather